User: anonymous   Login
Location: Franzen
(48.6167°N, 15.3833°E)
Time: 03:02:36
(UTC+00:00)
Language:

SL-16 R/B - Orbit

View from above orbital plane
View from above orbital plane
View from above satellite
View from above satellite

Ground track
Ground track

The orbit data is extracted from the following two-line orbital elements,

1 28353U 04021B   21164.71079522 -.00000110  00000-0 -32456-4 0  9993
2 28353  71.0024 261.6583 0004107 174.4632 185.6536 14.14248195878216
Epoch (UTC): 13 June 2021 17:03:32
Eccentricity: 0.0004107
inclination: 71.0024°
perigee height: 842 km
apogee height: 848 km
right ascension of ascending node: 261.6583°
argument of perigee: 174.4632°
revolutions per day: 14.14248195
mean anomaly at epoch: 185.6536°
orbit number at epoch: 87821

The dashed part of the orbit path shows where the satellite is in the earth's shadow,  

DLR